#timestamp,LO_Frequency,Hit,StdDev 
1696964415.2,286047009.7,N
1696964435.1,286047010.3,N
1696964436.0,286047010.3,N
1696964455.8,286047010.1,N
1696964475.7,286047011.0,Y
1696964495.5,286047003.5,P
1696964515.3,286047005.4,N
1696964535.2,286047007.2,P
1696964555.0,286047007.0,Y
1696964555.9,286047007.0,P
1696964575.8,286047000.0,N
1696964595.6,286047000.1,N
1696964615.4,286047000.0,N
1696964635.3,286047001.8,N
1696964655.1,286047004.1,N
1696964675.8,286047001.8,N
1696964695.7,286047002.1,N
1696964715.5,286046999.7,N
1696964735.3,286047000.2,N
1696964755.2,286047002.3,N
1696964775.0,286047002.4,N
1696964775.9,286047002.4,N
1696964795.8,286047004.4,N
1696964815.6,286047001.6,N
1696964835.4,286047003.6,N
1696964855.3,286047007.4,Y
1696964875.1,286047003.2,P
1696964895.9,286047004.8,P
1696964915.7,286047008.6,P
1696964935.5,286047011.0,Y
1696964955.4,286047007.8,P
1696964975.2,286047010.0,P
1696964995.0,286047011.9,P
1696964995.9,286047011.9,Y
1696965015.8,286047002.3,P
1696965035.6,286047000.1,N
1696965055.5,286047001.8,N
1696965075.3,286047003.2,N
1696965095.1,286047001.3,N
1696965115.9,286047005.9,N
1696965135.7,286047005.5,N
1696965155.5,286047004.1,N
1696965175.4,286047004.9,N
1696965195.2,286047005.1,N
1696965215.1,286047004.7,N
1696965216.0,286047004.7,N
1696965235.8,286047005.0,N
1696965255.6,286047004.8,N
1696965275.5,286047006.6,Y
1696965295.3,286047004.7,P
1696965315.1,286047004.5,P
1696965335.9,286047006.2,P
1696965355.7,286047007.6,Y
1696965375.6,286047000.3,P
1696965395.4,286046998.9,N
1696965415.2,286046998.4,N
1696965435.1,286046998.6,N
1696965436.0,286046998.6,N
1696965455.8,286047002.7,N
1696965475.6,286047001.9,N
1696965495.5,286047003.4,N
1696965515.3,286047005.3,N
1696965535.2,286047005.1,N
1696965555.9,286047005.3,N
1696965575.7,286047004.7,N
1696965595.6,286047006.6,N
1696965615.4,286047006.6,N
1696965635.2,286047007.3,N
1696965655.1,286047007.5,N
1696965656.0,286047007.5,N
1696965675.8,286047005.0,N
1696965695.7,286047007.1,N
1696965715.5,286047009.0,N
1696965735.3,286047008.7,N
1696965755.2,286047007.8,N
1696965775.9,286047008.3,N
1696965795.7,286047006.1,N
1696965815.6,286047010.7,Y
1696965835.4,286047007.5,P
1696965855.2,286047008.8,P
1696965875.1,286047008.9,P
1696965876.0,286047008.9,Y
1696965895.8,286047002.8,P
1696965915.7,286047001.1,N
1696965935.5,286046998.4,N
1696965955.3,286046996.8,N
1696965975.2,286046999.5,N
1696965995.0,286046999.1,N
1696965995.9,286046999.1,N
1696966015.8,286046998.3,N
1696966035.6,286047000.4,N
1696966055.4,286047002.3,N
1696966075.3,286047000.2,N
1696966095.1,286047002.1,N
1696966115.8,286047001.4,N
1696966135.7,286047003.4,N
1696966155.5,286047007.3,N
1696966175.4,286047008.8,Y
1696966195.2,286047007.3,P
1696966215.0,286047005.0,N
1696966215.9,286047005.0,N
1696966235.8,286047005.2,N
1696966255.6,286047009.2,Y
1696966275.4,286047005.9,P
1696966295.3,286047006.5,P
1696966315.1,286047007.3,P
1696966335.9,286047005.1,Y
1696966355.7,286047001.7,P
1696966375.5,286047006.6,N
1696966395.4,286047007.1,P
1696966415.2,286047004.7,N
1696966435.0,286047004.5,N
1696966435.9,286047004.5,N
1696966455.8,286047003.0,N
1696966475.6,286047006.6,Y
1696966495.5,286047000.5,P
1696966515.3,286047000.6,N
1696966535.1,286046998.8,N
1696966555.9,286047000.7,N
1696966575.7,286046998.7,N
1696966595.5,286046999.6,N
1696966615.4,286046998.4,N
1696966635.2,286047000.8,N
1696966655.1,286046999.3,N
1696966656.0,286046999.3,N
1696966675.8,286046996.6,N
1696966695.6,286047011.9,Y
1696966715.5,286046999.2,P
1696966735.3,286046998.7,P
1696966755.1,286046999.7,N
1696966775.9,286046999.9,N
1696966795.7,286047002.4,Y
1696966815.6,286047002.0,P
1696966835.4,286047003.6,N
1696966855.2,286047002.0,N
1696966875.1,286047002.6,N
1696966876.0,286047002.6,N
1696966895.8,286046999.7,N
1696966915.6,286047002.6,N
1696966935.5,286047003.3,N
1696966955.3,286047005.0,Y
1696966975.2,286047004.1,P
1696966995.0,286047007.2,P
1696966995.9,286047007.2,P
1696967015.7,286047009.0,Y
1696967035.6,286047001.4,P
1696967055.4,286047001.7,N
1696967075.3,286047001.3,N
1696967095.1,286047005.7,Y
1696967115.8,286047007.3,P
1696967135.7,286047004.9,N
1696967155.5,286047004.7,N
1696967175.4,286047004.9,N
1696967195.2,286047006.3,Y
1696967215.0,286047002.7,P
1696967215.9,286047002.7,N
1696967235.8,286047003.5,P
1696967255.6,286047004.7,Y
1696967275.5,286047003.8,P
1696967295.3,286047004.8,P
1696967315.1,286047004.8,P
1696967335.9,286047005.5,Y
1696967355.7,286047000.6,P
1696967375.5,286047002.8,N
1696967395.4,286047001.3,N
1696967415.2,286047004.8,Y
1696967435.1,286047004.6,P
1696967436.0,286047004.6,P
1696967455.8,286047008.6,P
1696967475.7,286047006.9,Y
1696967495.5,286047004.2,P
1696967515.3,286047004.1,P
1696967535.2,286047006.5,P
1696967555.9,286047010.5,Y
1696967575.7,286047008.9,P
1696967595.6,286047004.5,N
1696967615.4,286047006.6,P
1696967635.3,286047006.8,Y
1696967655.1,286047000.3,P
1696967675.8,286047000.0,N
1696967695.7,286047002.6,N
1696967715.5,286047004.2,N
1696967735.4,286047000.6,N
1696967755.2,286047001.0,N
1696967775.0,286047002.6,N
1696967775.9,286047002.6,N
1696967795.8,286047006.0,Y
1696967815.6,286047003.9,P
1696967835.5,286047004.0,P
1696967855.3,286047003.2,P
1696967875.1,286047006.1,Y
1696967895.9,286047004.9,P
1696967915.7,286047007.3,P
1696967935.5,286047010.5,P
1696967955.4,286047010.1,Y
1696967975.2,286047003.5,P
1696967995.1,286047003.0,N
1696967996.0,286047003.0,N
